Location: Newark
(27.9675°N, 86.8869°E)
Time: 22:03:01
(UTC+00:00)

SR - Pass Details

Date: 30 October 2019
Orbit: 574 x 882 km, 66.7° (Epoch: 16 November)

Event Time Altitude Azimuth Distance (km) Brightness Sun altitude
Rises 11:44:12 0° 152° (SSE) 2,964 ? -3.8°
Reaches altitude 10° 11:48:35 10° 113° (ESE) 2,148 ? -4.8°
Maximum altitude 11:49:30 11° 102° (ESE) 2,134 ? -5.0°
Drops below altitude 10° 11:50:26 10° 91° (E) 2,189 ? -5.2°
Enters shadow 11:52:38 - 69° (ENE) 2,547 ? -5.7°
Sets 11:55:08 0° 53° (NE) 3,216 - -6.2°
